{"data":{"norad_id":67034,"epoch":"2026-05-24T18:52:36.964416Z","epoch_age_seconds":92957,"freshness":"FRESH","line1":"1 67034U 25294E   26144.78653894  .00018815  00000+0  69116-3 0  9997","line2":"2 67034  43.0004 328.6334 0001476 269.1469  90.9214 15.27596260 26430","mean_motion":15.2759626,"eccentricity":0.0001476,"inclination_deg":43.0004,"raan_deg":328.6334,"arg_perigee_deg":269.1469,"mean_anomaly_deg":90.9214,"bstar":0.00069116,"rev_number":2643,"period_min":94.265745322,"perigee_km":481.98770430057,"apogee_km":484.01311206347,"semimajor_km":6861.137408182,"source":"CELESTRAK","updated_at":"2026-05-25T13:38:21.436972Z"}}